Address 0xcac542b4cd65c3716859dcb543831196d7989eb0 3

Overview

Balance:
16.286527290958164064 MATIC
My Name Tag:
Not Available

Txn Hash Method
Block
From
To
Value [Txn Fee]
0xbd18820e7d63086116fe57b6a5d0efcf195407757b21765dd3f087be21775217Transfer269424652022-06-28 10:42:543 days 21 hrs ago0x5d017ac1f7221dafc849ac3e0d78944e47d63218 IN 0xcac542b4cd65c3716859dcb543831196d7989eb00.199968499999265 MATIC0.0000315 1.500000008
0x293532aa016f09fc2adf3cb2aa82e98dcb1b23627266aad2fcefe9073ce661ceTransfer269424642022-06-28 10:42:493 days 21 hrs ago0xcd788b3d02fd73044c13451fbdd43f55afac5292 IN 0xcac542b4cd65c3716859dcb543831196d7989eb00.19993662666662 MATIC0.000063373332 3.017777744
0xeb27d9ac0f5aacacd05969c6b85c2717377809923a164558203c23d148b0c6e9Transfer269424642022-06-28 10:42:493 days 21 hrs ago0x6fb64181eda90ec54df86e6ce3331b02f04094d0 IN 0xcac542b4cd65c3716859dcb543831196d7989eb00.199936626666305 MATIC0.000063373332 3.017777746
0x81dfce2f4666babcb433ca9ee17bf373599e04b3625bfd07087522b4911a85b5Transfer269424642022-06-28 10:42:493 days 21 hrs ago0xcb21bc529cd67d867cf39dfcf213cc7f2b192422 IN 0xcac542b4cd65c3716859dcb543831196d7989eb00.199388899987001 MATIC0.000611100012 29.100000603
0xe47dc86d8ddc72ced26be464ee407be64511a2d66118146b10e9b91678706d1aTransfer269424212022-06-28 10:39:133 days 21 hrs ago0xff441a8c618b6a9c40f1da834a50aeef37d9b3bd IN 0xcac542b4cd65c3716859dcb543831196d7989eb00.199131972617393 MATIC0.000841986561 40.094598147
0x6ce37fd0c91681c88fe71a80e0bdb601f02e2ce41abb827a15a9a5852a0f30eeTransfer269424162022-06-28 10:38:483 days 21 hrs ago0xcdbc2f10eea11f9bafc6416ae4254a99e0bf2821 IN 0xcac542b4cd65c3716859dcb543831196d7989eb00.199191311000021 MATIC0.000808688999 38.508999994
0x16f28e494f9b3f302c71ab2c514240cf62a6c1271e39e7eace117695722074e6Transfer269424132022-06-28 10:38:333 days 21 hrs ago0xcebf610e0d5ac4bb084e832f594430a7d5e7a924 IN 0xcac542b4cd65c3716859dcb543831196d7989eb00.199191310999937 MATIC0.000808688999 38.508999997
0x6b6b1c2e6e1b1db3b87b93c1dceccd7b75173bb81709ca52313aef914240d987Transfer269423762022-06-28 10:35:273 days 21 hrs ago0xe5843d8f34d9fb4979e96e4dc42130bdd865acca IN 0xcac542b4cd65c3716859dcb543831196d7989eb00.199936713061103 MATIC0.000063373333 3.017777782
0x0e36f267a5db6a93917b7acf634c8cc4eae96dd3c7174489744836389dda4a7dTransfer269306112022-06-27 12:37:084 days 19 hrs ago0x43c63583ea77d4a9076837380c5d31b4dee573e3 IN 0xcac542b4cd65c3716859dcb543831196d7989eb00.199967918214992 MATIC0.000032146441 1.530782912
0x3df88946cfa433ed823c4d3db948c0505d561f6713d8146dfdc45f1dbd0e37deTransfer269306102022-06-27 12:36:584 days 19 hrs ago0x6ea93399b1c9188a2b46fddadf15f0dc9a2cb84c IN 0xcac542b4cd65c3716859dcb543831196d7989eb00.199967907844499 MATIC0.000032146441 1.530782911
0x9563630e3086348366156d10ab9066bb16bceb4953f576506bb31980c6983ad1Transfer269306092022-06-27 12:36:484 days 19 hrs ago0x9d7dc6725bf693dd5353d592a04a395fdfe7386f IN 0xcac542b4cd65c3716859dcb543831196d7989eb00.199968499999706 MATIC0.0000315 1.500000014
0x2e29e2413cfe76a66dd4f7a7c9d9e5265ea2572d9121608e85de5375d11cdc7aTransfer269306022022-06-27 12:35:384 days 19 hrs ago0x9458c7e4ab6ab525779b28b4c2f41a202c2830d4 IN 0xcac542b4cd65c3716859dcb543831196d7989eb00.199967990028524 MATIC0.000032009971 1.524284358
0x3185e5d100d78471d8aede74a82e95619d6976de963f1e2b88452233ec7e9627Transfer269305952022-06-27 12:34:284 days 19 hrs ago0x1e29a959a59ea83a6d86042e7811386afc3c81e7 IN 0xcac542b4cd65c3716859dcb543831196d7989eb00.19996849999979 MATIC0.0000315 1.500000011
0x1ac0991d2d52acac9ca856d69cf923f46125b6c5d6648d35d52196f3b91d1b7fTransfer269305942022-06-27 12:34:184 days 19 hrs ago0x20583a3a96894b52c009b5dc090d63853e3fd5d1 IN 0xcac542b4cd65c3716859dcb543831196d7989eb00.199968499999811 MATIC0.0000315 1.500000011
0x01760522b212875578d8c1d32198acd3cdc92fb8fbe5e6e4e2906f38d11e0b4dTransfer269305932022-06-27 12:34:084 days 19 hrs ago0xb7ffb8ca742f47860523c0c7da25d29c4cb51dcd IN 0xcac542b4cd65c3716859dcb543831196d7989eb00.19996849999979 MATIC0.0000315 1.500000011
0x1536c6a889eaa90971918a14d92492d2e58b10e5fd84afd8dff179fac0c5206dTransfer269305922022-06-27 12:33:584 days 19 hrs ago0xac16db36888a04d115b5b858547f07daf882af12 IN 0xcac542b4cd65c3716859dcb543831196d7989eb00.199968682619549 MATIC0.0000315 1.500000011
0xf0a1923be0439a9da9b36069f905524a57b118fe132c367db8e9a6b66a65acf1Transfer269305912022-06-27 12:33:484 days 19 hrs ago0xa81f3785bfcb8717478708f4a7df579d998e6e42 IN 0xcac542b4cd65c3716859dcb543831196d7989eb00.199968499999769 MATIC0.0000315 1.500000011
0xe813f8883b7959fe089aec61cdf97de959e071bd610b523c90309192dd06e3bbTransfer269305902022-06-27 12:33:384 days 19 hrs ago0x1191c7210399eb8ae243847cff5fe70ad6ca82b4 IN 0xcac542b4cd65c3716859dcb543831196d7989eb00.199968499999769 MATIC0.0000315 1.500000011
0xa1e5648e8b288c1f170e7f8fdccefa9f2f7650bedeb7a9b9d08fe3760a92603fTransfer269305902022-06-27 12:33:384 days 19 hrs ago0x0a7d1af0d8c64051c199ccb7e75d31c18c5d7f7c IN 0xcac542b4cd65c3716859dcb543831196d7989eb00.199968499999769 MATIC0.0000315 1.500000011
0x93cfb677133c4814a9813778811b252bf0f8f00fdf43e1bfd613b126fadc13a2Transfer269305892022-06-27 12:33:284 days 19 hrs ago0x36c6b6a4cb5d5b7a3d21db84dedac189ecc9b831 IN 0xcac542b4cd65c3716859dcb543831196d7989eb00.199968499999769 MATIC0.0000315 1.500000011
0x002cb855d9c6d0048033e046dd18f953faaaf5b623b7aeda19c966457ce96351Transfer269305882022-06-27 12:33:184 days 19 hrs ago0x55be28680a4099afb3a3391191eb24919429379b IN 0xcac542b4cd65c3716859dcb543831196d7989eb00.199968499999769 MATIC0.0000315 1.500000011
0x96d458f4e6cf41ce3b27c17a3981c7baeff19f2699d00a181fec03616b1eae15Transfer269305602022-06-27 12:28:384 days 19 hrs ago0x7cb74f805a55a48ed845054a080c45e2d6894752 IN 0xcac542b4cd65c3716859dcb543831196d7989eb00.199968499999874 MATIC0.0000315 1.500000008
0xf7ae2badf074657d32b9039520e7ac678f6c591744ff062316099d35a94a092eTransfer269305592022-06-27 12:28:274 days 19 hrs ago0x38c26a0e0a95172f75cc3723b28a464762acd78c IN 0xcac542b4cd65c3716859dcb543831196d7989eb00.199972860876968 MATIC0.0000315 1.500000008
0x13b40297a1ac3e4a6afb23e87814f9319f2c9bf8f698d02cc0a54b0bd6111b5cTransfer269305572022-06-27 12:28:174 days 19 hrs ago0x9c879f0e1b45bec481c88be937488d0a5f111a01 IN 0xcac542b4cd65c3716859dcb543831196d7989eb00.199968499999853 MATIC0.0000315 1.500000008
0xffead48e87ae02d9760d15814f531c2c24074248554108992a734da5afcdab16Transfer269305562022-06-27 12:28:124 days 19 hrs ago0x4a8fbe22ad33f8d5a4d08a1bcc36b054787b4c50 IN 0xcac542b4cd65c3716859dcb543831196d7989eb00.199968499999853 MATIC0.0000315 1.500000008
[ Download CSV Export 
Latest 5 internal transactions
Parent Txn Hash Block From To Value
0xccd8d52ba39bca5f0f496d64942c34726418949a71347b14c922d0bf2a25477c269401872022-06-28 6:57:184 days 1 hr ago 0x585e9485054d43be601b5fcfcd5756af68c8824f0xcac542b4cd65c3716859dcb543831196d7989eb01 MATIC
0xb509649a4985548478c5d96ada3aef2274a7da658801505aa94f7fc14241c7c4269401802022-06-28 6:56:434 days 1 hr ago 0x585e9485054d43be601b5fcfcd5756af68c8824f0xcac542b4cd65c3716859dcb543831196d7989eb02 MATIC
0xd418540d09c15fe0b730c277d695d7bb8163fe6adddfe06bbfb4a56628d43d20269386242022-06-28 4:19:594 days 3 hrs ago 0x585e9485054d43be601b5fcfcd5756af68c8824f0xcac542b4cd65c3716859dcb543831196d7989eb02 MATIC
0x01d0ec21a2b34fa3e3b7c21d252479cd1dec022315967e9f84282ea2e0aa137f269382882022-06-28 3:46:334 days 4 hrs ago 0x585e9485054d43be601b5fcfcd5756af68c8824f0xcac542b4cd65c3716859dcb543831196d7989eb01 MATIC
0x48e5e1ddd37870366b36cdb871d951d2e35f43eb9a95beaa10cf201bcb05bd46267555922022-06-15 12:43:0416 days 19 hrs ago 0x7f092e65c688a509737fcd8d0998dd12208f52970xcac542b4cd65c3716859dcb543831196d7989eb00.2 MATIC
[ Download CSV Export 
Loading

Contract Name:
0 MATIC

Compiler Version
0

Optimization Enabled:
0 MATIC

Other Settings:
-NA-
Block Transaction Gas Used Reward
Age Block Fee Address BC Fee Address Voting Power Jailed Incoming
Block Uncle Number Difficulty Gas Used Reward
Loading